Regional Weather Roundup
Issued by NWS

Home | Current Version | Previous Version | Text Only | Print | Product List | Glossary Off
Versions: 1 2 3 4 5 6 7 8 9 10 11 12 13 14 15 16 17 18 19 20 21 22 23 24 25 26 27 28 29 30 31 32 33 34 35 36 37 38 39 40 41 42 43 44 45 46 47 48 49 50

000
ASUS43 KMKX 032311
RWRWI

WISCONSIN REGIONAL WEATHER ROUNDUP
NATIONAL WEATHER SERVICE MILWAUKEE/SULLIVAN WI
600 PM CDT TUE MAY 03 2016

NOTE: "FAIR" INDICATES FEW OR NO CLOUDS BELOW 12,000 FEET WITH NO
SIGNIFICANT WEATHER AND/OR OBSTRUCTIONS TO VISIBILITY.

WIZ001-002-006>008-014>016-023>028-040000-
NORTHWEST WISCONSIN

CITY           SKY/WX    TMP DP  RH WIND       PRES   REMARKS
SUPERIOR ARPT  PTSUNNY   68  29  23 N17G26    29.69R
ASHLAND        CLOUDY    57  39  51 NE16G26   29.69R
HAYWARD        CLOUDY    65  28  24 N14G26    29.66S
SIREN          MOSUNNY   69  28  21 N21G28    29.67R
CUMBERLAND     MOSUNNY   63  45  51 NW7       29.66S
RICE LAKE      MOSUNNY   62  46  55 NW3       29.66F
CHETEK         PTSUNNY   59  47  66 NW5       29.65S
LADYSMITH      CLOUDY    56  48  73 NE7       29.68F
EAU CLAIRE     PTSUNNY   67  37  33 W20G28    29.62F
MENOMONIE      SUNNY     68  37  31 W16G23    29.64F
NEW RICHMOND   CLOUDY    68  37  31 NW17G24   29.65F
OSCEOLA        MOSUNNY   69  40  34 NW10G18   29.68S
$$

WIZ003>005-009-010-017-018-040000-
NORTH CENTRAL WISCONSIN

CITY           SKY/WX    TMP DP  RH WIND       PRES   REMARKS
MANITOWISH WTR MOSUNNY   55  42  61 N9G16     29.67S
ARBOR VITAE    MOSUNNY   57  49  75 W6        29.67S
WOODRUFF       MOSUNNY   57  49  75 W6        29.67S
RHINELANDER    CLOUDY    50  46  86 W8        29.69F
EAGLE RIVER    SUNNY     54  44  68 W7        29.67S
LAND O LAKES   PTSUNNY   49  42  74 N9        29.70R
PHILLIPS       CLOUDY    49  47  92 SE6       29.66F
TOMAHAWK       RAIN      49  44  85 NW15      29.73R
MEDFORD        LGT RAIN  50  48  91 NE7       29.67S
MERRILL        LGT RAIN  53  49  87 CALM      29.69F
$$

WIZ029-030-035-036-043>047-040000-
CENTRAL WISCONSIN

CITY           SKY/WX    TMP DP  RH WIND       PRES   REMARKS
WAUSAU         LGT RAIN  58  44  60 NE6       29.66F
MOSINEE        PTSUNNY   57  39  51 W17       29.68F
MARSHFIELD     CLOUDY    63  38  39 W7        29.64F
STEVENS POINT  LGT RAIN  58  39  49 W6        29.69S
WAUPACA        CLOUDY    65  33  29 W17G31    29.68S
WAUTOMA        CLOUDY    66  35  31 SW13G22   29.68F
WISC RAPIDS    LGT RAIN  62  36  37 W15G23    29.70R
CAMP DOUGLAS   PTSUNNY   66  37  34 W16G22    29.67F
$$

WIZ011>013-019>022-031-037>040-048>050-040000-
NORTHEAST WISCONSIN

CITY           SKY/WX    TMP DP  RH WIND       PRES   REMARKS
ANTIGO         LGT RAIN  50  46  87 CALM      29.69F
SHAWANO        DRIZZLE   61  39  44 NW8G21    29.69R
OCONTO         CLOUDY    56  45  65 N8        29.68R
STURGEON BAY   CLOUDY    57  39  51 N22G35    29.72R
GREEN BAY      CLOUDY    64  37  36 W17       29.68R
MANITOWOC      CLOUDY    67  33  28 MISG      29.67F
APPLETON       CLOUDY    64  28  25 W10       29.66S
CLINTONVILLE   CLOUDY    63  32  31 NW16G24   29.69R
OSHKOSH        CLOUDY    65  35  33 W8G22     29.67F
$$

WIZ032>034-041-042-053>061-040000-
SOUTHWEST WISCONSIN

CITY           SKY/WX    TMP DP  RH WIND       PRES   REMARKS
LA CROSSE      CLOUDY    69  36  29 W15       29.68F
SPARTA         CLOUDY    67  36  32 W13G20    29.69F
VIROQUA        CLOUDY    65  35  33 W16G30    29.73F
BOSCOBEL       LGT RAIN  70  36  28 W16G26    29.74F
PRAIRIE DU CHI MOSUNNY   68  34  28 W12G23    29.74F
PLATTEVILLE    MOSUNNY   66  39  36 W15G25    29.78F
$$

WIZ056-057-062-063-064-067-068-040000-
SOUTH CENTRAL WISCONSIN

CITY           SKY/WX    TMP DP  RH WIND       PRES   REMARKS
REEDSBURG      CLOUDY    65  37  35 W16G22    29.70F
BARABOO/DELLS  CLOUDY    65  32  29 SW13G18   29.71F
LONE ROCK      CLOUDY    66  37  34 W17G26    29.73F
MINERAL POINT  CLOUDY    64  34  32 W17G26    29.76F
MADISON        CLOUDY    65  37  35 W6        29.73F
MIDDLETON      CLOUDY    65  38  37 W10G18    29.73F
WATERTOWN      CLOUDY    64  39  40 SW12      29.72F
MONROE         CLOUDY    63  37  39 W18G26    29.77F
JANESVILLE     PTSUNNY   66  36  32 W17G23    29.76F
$$

WIZ051-052-058>065-066-070>072-040000-
SOUTHEAST WISCONSIN

CITY           SKY/WX    TMP DP  RH WIND       PRES   REMARKS
MILWAUKEE      CLOUDY    66  33  29 W13G25    29.73F
WAUKESHA       MOSUNNY   63  34  34 W16G25    29.75F
MILWAUKEE/TIMM PTSUNNY   64  30  27 SW18G24   29.73F
RACINE         CLOUDY    66  35  31 SW12G18   29.76F
BURLINGTON     MOSUNNY   64  35  33 W10G21    29.75F
KENOSHA        CLOUDY    64  39  39 W16G24    29.75F
FOND DU LAC    CLOUDY    66  37  34 SW10      29.69F
SHEBOYGAN      CLOUDY    65  37  35 SW14      29.69F
WEST BEND      CLOUDY    63  32  31 SW10G21   29.71F
JUNEAU         CLOUDY    64  38  39 SW16G23   29.72F
$$

LSZ147-162-040000-
LAKE SUPERIOR

STATION/POSITION TIME  TEMP    WIND        PRES    WAVE
                       AIR SEA DIR/SP/G            HT/PER
                 (UTC) (F)     (DEG/KT/KT) (MB)    (FT/S)
W MID LAKE BUOY  2250   51 37  220/  6/  6 1005.3R   1/ 4
DEVILS ISLAND    2200   55      30/  8/ 10 1005.8R
SAXON HARBOR     2220   49      40/ 18/ 20 1005.4R
$$

LMZ867-665-643>646-040000-
LAKE MICHIGAN

STATION/POSITION TIME  TEMP    WIND        PRES    WAVE
                       AIR SEA DIR/SP/G            HT/PER
                 (UTC) (F)     (DEG/KT/KT) (MB)    (FT/S)
CHAMBERS ISLAND  2240   49     310/  9/ 15 1006.1R
N MID LAKE BUOY  2250   44 39  350/  8/ 10 1005.7R   3/ 4
NORTHPORT PIER   2200   51     360/  6/  8 1004.7
ALGOMA LAKESHORE 2215          240/  7/  8   N/A
KEWAUNEE LAKESHO 2200   66                 1004.0F
SHEBOYGAN LAKESH 2300   66     230/ 19/ 22 1005.4F
PORT WASHINGTON  2200   68     260/ 11/ 20 1007.1
S MID LAKE BUOY  2250   46 42  170/ 14/ 14 1007.8F   1/ 3
KENOSHA   LAKESH 2300   66     250/ 12/ 19 1007.5F
$$

TC  - TEMPERATURE IN CELSIUS
VSB - VISIBILITY IN STATUTE MILES
WCI - WIND CHILL INDEX
HX  - HEAT INDEX




USA.gov is the U.S. government's official web portal to all federal, state and local government web resources and services.